Tracking 27172 objects as of 2-Apr-2023
HD Live streaming from Space Station
objects crossing your sky now

DMSP 5D-2 F11 DEB

Track DMSP 5D-2 F11 DEB now!
10-day predictions


NORAD ID: 29088
Int'l Code: 1991-082CH
Perigee: 742.4 km
Apogee: 755.0 km
Inclination: 98.6 °
Period: 99.6 minutes
Semi major axis: 7119 km
RCS: 0.0127 m2 (small)
Launch date: November 28, 1991
Source: United States (US)
Launch site: AIR FORCE WESTERN TEST RANGE (AFWTR)

Note: This is SATELLITE DEBRIS
Your satellite tracking list
Your tracking list is empty




NASA's NSSDC Master Catalog

Two Line Element Set (TLE):
1 29088U 91082CH  23083.43122015  .00089767  00000-0  25303-1 0  9992
2 29088  98.5720 153.5893 0008874 281.1000  78.9192 14.45145893510863
Source of the keplerian elements: AFSPC